Погода в Табарке

Тунис     36°57′03″N   8°45′28″E
темп.,
°C
ветер,
м/с
пор.,
м/с
влажн.,
%
обл.,
%
осадки,
мм/ч
давл.,
гПа
погр.,
м
3 августа, вт
вт301:00+24вюв33680 0.0 101277
04:00+24ю12765 0.0 1012128
07:00+24з227910 0.0 1014305
10:00+27всв3369100 0.0 1015397
13:00+28ссв76727 0.0 1013359
16:00+30св9105846 0.0 1010282
19:00+34в253969 0.0 100893
22:00+31зюз674410 0.0 101083
4 августа, ср
ср401:00+27з67732 0.0 1010185
04:00+24зюз67907 0.0 1011248
07:00+25з568794 0.0 1013459
10:00+27зсз447384 0.0 1013433
13:00+27ссз437559 0.0 1012452
16:00+27сз4477100 0.0 1013568
19:00+25зсз4581100 0.0 1014569
22:00+24зюз558599 0.0 1016435
5 августа, чт
чт501:00+24з458078 0.0 1016445
04:00+24зюз448094 0.0 1015346
07:00+25зсз23760 0.0 1015607
10:00+26сз32650 0.0 1016601
13:00+27ссз42590 0.0 1015592
16:00+27с43560 0.0 1014493
19:00+25св22680 0.0 1013236
22:00+23ююв11810 0.0 1014113
6 августа, пт
пт601:00+23юв00765 0.0 1013118
04:00+23вюв11682 0.0 101290
07:00+25в12540 0.0 1012138
10:00+28ссв43530 0.0 1012412
13:00+29ссв65550 0.0 1011361
16:00+29св67540 0.0 1010285
19:00+28св56560 0.0 100979
22:00+28юв44520 0.0 100931
7 августа, сб
сб701:00+27юв33550 0.0 100825
04:00+27ю33550 0.0 100626
07:00+29ююв34500 0.0 100661
10:00+34зсз13390 0.0 1006384
13:00+36с45394 0.0 10051085
16:00+32зсз23509 0.0 1006253
19:00+28зюз576796 0.0 1009174
22:00+26зюз68799 0.0 1011206